DF1NIF-13 Weather Reports


time (UTC)temp
C
wind
direction
speed
KPH
gust
KPH
rain 1hr
cm
rain 24hr
cm
rain mn
cm
humidity
%
barometer
mb
20260901203508 15 168 0.0 0.0 0.00 0.00 0.00 80 974.8
20260901203033 15 168 1.6 1.6 0.00 0.00 0.00 80 974.8
20260901202618 15 168 0.0 1.6 0.00 0.00 0.00 80 974.9
20260901202135 15 168 0.0 1.6 0.00 0.00 0.00 73 974.5
20260901201653 15 220 0.0 1.6 0.00 0.00 0.00 73 974.7
20260901201223 15 220 0.0 0.0 0.00 0.00 0.00 73 974.7
20260901200803 15 220 0.0 1.6 0.00 0.00 0.00 73 974.7
20260901200338 15 220 0.0 1.6 0.00 0.00 0.00 73 974.7
20260901195928 16 220 0.0 1.6 0.00 0.00 0.00 73 974.7
20260901195458 16 220 1.6 1.6 0.00 0.00 0.00 73 974.5
20260901195043 16 220 1.6 1.6 0.00 0.00 0.00 73 974.8
20260901194608 16 220 1.6 1.6 0.00 0.00 0.00 73 974.6
20260901194125 16 235 1.6 1.6 0.00 0.00 0.00 73 974.5
20260901193708 16 235 0.0 1.6 0.00 0.00 0.00 73 974.7
20260901193223 16 235 0.0 1.6 0.00 0.00 0.00 73 974.7
20260901192758 16 235 3.2 1.6 0.00 0.00 0.00 73 974.6
20260901192318 16 174 0.0 0.0 0.00 0.00 0.00 62 974.6
20260901191855 16 174 0.0 0.0 0.00 0.00 0.00 62 974.5
20260901191453 16 174 0.0 0.0 0.00 0.00 0.00 62 974.4
20260901191038 16 174 0.0 1.6 0.00 0.00 0.00 62 974.6
20260901190613 17 174 0.0 1.6 0.00 0.00 0.00 62 974.5
20260901190133 17 174 0.0 1.6 0.00 0.00 0.00 62 974.4
20260901185658 17 174 0.0 0.0 0.00 0.00 0.00 62 974.4
20260901185238 17 174 0.0 0.0 0.00 0.00 0.00 62 974.3
20260901184815 17 174 0.0 0.0 0.00 0.00 0.00 62 974.2
20260901184403 17 174 0.0 0.0 0.00 0.00 0.00 62 974.4
20260901183943 17 174 1.6 0.0 0.00 0.00 0.00 62 974.3
20260901183458 17 174 3.2 0.0 0.00 0.00 0.00 62 974.4
20260901183003 18 174 0.0 0.0 0.00 0.00 0.00 62 974.1
20260901182523 18 174 1.6 0.0 0.00 0.00 0.00 62 974.0
20260901182113 18 174 1.6 0.0 0.00 0.00 0.00 62 974.3
20260901181708 20 174 1.6 0.0 0.00 0.00 0.00 62 974.0
20260901181235 20 174 1.6 1.6 0.00 0.00 0.00 62 974.3
20260901180808 20 174 1.6 1.6 0.00 0.00 0.00 59 974.0
20260901180343 20 174 1.6 1.6 0.00 0.00 0.00 59 974.1
20260901175923 20 175 1.6 1.6 0.00 0.00 0.00 49 973.8
20260901175455 20 175 1.6 0.0 0.00 0.00 0.00 49 973.9
20260901175028 20 307 3.2 1.6 0.00 0.00 0.00 49 973.7
20260901174559 20 307 3.2 1.6 0.00 0.00 0.00 49 973.7
20260901174115 20 303 3.2 1.6 0.00 0.00 0.00 49 973.8
20260901173648 20 303 3.2 4.8 0.00 0.00 0.00 49 973.8
20260901173223 20 303 0.0 4.8 0.00 0.00 0.00 49 973.9
20260901172808 20 135 0.0 4.8 0.00 0.00 0.00 49 973.7
20260901172343 21 135 1.6 8.0 0.00 0.00 0.00 49 973.8
20260901171913 21 101 1.6 8.0 0.00 0.00 0.00 49 973.9
20260901171448 21 101 1.6 4.8 0.00 0.00 0.00 49 973.7
20260901171013 21 79 1.6 1.6 0.00 0.00 0.00 49 973.8
20260901170543 21 79 4.8 1.6 0.00 0.00 0.00 49 973.8
20260901170059 21 144 4.8 4.8 0.00 0.00 0.00 47 973.7
20260901165618 21 181 4.8 11.3 0.00 0.00 0.00 47 973.8
20260901165128 21 181 0.0 11.3 0.00 0.00 0.00 47 973.7
20260901164658 21 286 3.2 11.3 0.00 0.00 0.00 47 973.7
20260901164228 21 286 4.8 14.5 0.00 0.00 0.00 47 973.9
20260901163803 21 171 1.6 14.5 0.00 0.00 0.00 47 974.1
20260901163358 21 171 6.4 14.5 0.00 0.00 0.00 47 974.0
20260901162923 21 124 6.4 8.0 0.00 0.00 0.00 47 974.0
20260901162503 21 124 3.2 4.8 0.00 0.00 0.00 47 974.2
20260901162028 21 132 9.7 8.0 0.00 0.00 0.00 47 974.0
20260901161538 21 108 9.7 8.0 0.00 0.00 0.00 47 974.1
20260901161115 21 121 4.8 8.0 0.00 0.00 0.00 47 973.9
20260901160638 21 106 8.0 14.5 0.00 0.00 0.00 47 974.1
20260901160203 21 123 6.4 8.0 0.00 0.00 0.00 45 974.2
20260901155733 21 138 1.6 17.7 0.00 0.00 0.00 45 974.0
20260901155253 21 136 3.2 11.3 0.00 0.00 0.00 45 974.0
20260901154818 22 139 6.4 8.0 0.00 0.00 0.00 45 974.1
20260901154343 22 171 11.3 8.0 0.00 0.00 0.00 45 974.2
20260901153855 22 314 11.3 8.0 0.00 0.00 0.00 45 974.1
20260901153418 22 344 11.3 14.5 0.00 0.00 0.00 45 974.0
20260901152955 22 344 11.3 17.7 0.00 0.00 0.00 45 974.1
20260901152553 22 344 6.4 14.5 0.00 0.00 0.00 45 974.0
20260901152113 21 326 9.7 11.3 0.00 0.00 0.00 45 974.0
20260901151628 21 184 9.7 14.5 0.00 0.00 0.00 45 974.1
20260901151139 21 267 0.0 14.5 0.00 0.00 0.00 45 974.1
20260901150653 21 150 9.7 8.0 0.00 0.00 0.00 45 974.0
20260901150248 21 277 0.0 0.0 0.00 0.00 0.00 100 974.1
20260901145835 20 288 3.2 8.0 0.00 0.00 0.00 100 973.8
20260901145348 21 326 9.7 14.5 0.00 0.00 0.00 100 974.1
20260901144933 21 354 0.0 0.0 0.00 0.00 0.00 100 974.0
20260901144513 21 330 1.6 17.7 0.00 0.00 0.00 48 974.0
20260901144048 21 330 17.7 14.5 0.00 0.00 0.00 47 974.1
20260901143613 21 253 1.6 20.9 0.00 0.00 0.00 52 974.3
20260901143135 21 343 16.1 11.3 0.00 0.00 0.00 52 974.0
20260901142718 21 299 6.4 22.5 0.00 0.00 0.00 52 974.0
20260901142308 21 334 6.4 17.7 0.00 0.00 0.00 52 974.1
20260901141853 21 337 6.4 22.5 0.00 0.00 0.00 52 974.2
20260901141423 20 337 6.4 11.3 0.00 0.00 0.00 52 974.2
20260901140954 20 306 1.6 17.7 0.00 0.00 0.00 52 974.2
20260901140528 20 169 1.6 14.5 0.00 0.00 0.00 52 974.5
20260901140058 21 169 1.6 22.5 0.00 0.00 0.00 51 974.3
20260901135653 21 305 1.6 29.0 0.00 0.00 0.00 51 974.4
20260901135223 21 287 4.8 11.3 0.00 0.00 0.00 51 974.3
20260901134753 21 230 4.8 22.5 0.00 0.00 0.00 51 974.3
20260901134323 20 1 4.8 11.3 0.00 0.00 0.00 51 974.3
20260901133853 20 343 8.0 14.5 0.00 0.00 0.00 50 974.4
20260901133426 20 262 8.0 17.7 0.00 0.00 0.00 51 974.5
20260901133015 20 343 1.6 17.7 0.00 0.00 0.00 54 974.5
20260901132547 21 127 11.3 14.5 0.00 0.00 0.00 54 974.5
20260901132148 20 127 6.4 11.3 0.00 0.00 0.00 54 974.6
20260901131728 19 199 3.2 11.3 0.00 0.00 0.00 54 974.7
20260901131233 19 57 1.6 4.8 0.00 0.00 0.00 54 974.5
20260901130818 19 298 6.4 8.0 0.00 0.00 0.00 54 974.6
20260901130338 20 298 9.7 8.0 0.00 0.00 0.00 54 974.8
20260901125928 19 276 9.7 8.0 0.00 0.00 0.00 54 975.0
20260901125453 19 342 8.0 17.7 0.00 0.00 0.00 54 974.7
20260901125033 20 307 1.6 11.3 0.00 0.00 0.00 54 974.7
20260901124533 20 351 1.6 4.8 0.00 0.00 0.00 54 974.8
20260901124103 20 347 9.7 17.7 0.00 0.00 0.00 54 974.6
20260901123608 20 318 12.9 17.7 0.00 0.00 0.00 54 974.7
20260901123133 20 305 3.2 17.7 0.00 0.00 0.00 54 974.7
20260901122653 20 147 3.2 20.9 0.00 0.00 0.00 59 974.8
20260901122223 20 2 9.7 20.9 0.00 0.00 0.00 59 974.7
20260901121803 20 2 9.7 20.9 0.00 0.00 0.00 59 975.0
20260901121343 20 2 9.7 14.5 0.00 0.00 0.00 59 974.9
20260901120858 20 344 9.7 22.5 0.00 0.00 0.00 59 974.7
20260901120446 20 324 9.7 11.3 0.00 0.00 0.00 59 974.7
20260901120018 20 314 1.6 20.9 0.00 0.00 0.00 59 974.9
20260901115525 20 297 6.4 20.9 0.00 0.00 0.00 59 974.7
20260901115113 20 342 14.5 20.9 0.00 0.00 0.00 59 974.9
20260901114628 19 12 9.7 20.9 0.00 0.00 0.00 59 974.7
20260901114153 19 3 14.5 22.5 0.00 0.00 0.00 59 974.8
20260901113703 19 353 4.8 29.0 0.00 0.00 0.00 55 974.8
20260901113228 19 0 4.8 22.5 0.00 0.00 0.00 55 974.8
20260901112803 19 358 16.1 17.7 0.00 0.00 0.00 55 974.7
20260901112348 19 291 12.9 22.5 0.00 0.00 0.00 55 974.9
20260901111920 19 302 12.9 22.5 0.00 0.00 0.00 55 974.8
20260901111501 18 302 12.9 40.2 0.00 0.00 0.00 55 974.8
20260901111055 18 288 12.9 29.0 0.00 0.00 0.00 58 974.8
20260901110626 18 354 9.7 22.5 0.00 0.00 0.00 58 974.8
20260901110158 18 354 14.5 14.5 0.00 0.00 0.00 58 974.9
20260901105708 18 348 14.5 22.5 0.00 0.00 0.00 58 974.9
20260901105238 19 21 14.5 11.3 0.00 0.00 0.00 58 974.8
20260901104753 19 335 9.7 11.3 0.00 0.00 0.00 59 975.0
20260901104327 18 345 9.7 20.9 0.00 0.00 0.00 59 974.8
20260901103903 18 10 9.7 17.7 0.00 0.00 0.00 59 974.8
20260901103422 18 196 4.8 25.7 0.00 0.00 0.00 59 975.1
20260901102935 18 255 4.8 25.7 0.00 0.00 0.00 59 974.8
20260901102508 18 291 25.7 25.7 0.00 0.00 0.00 59 975.0
20260901102048 19 291 8.0 25.7 0.00 0.00 0.00 59 974.8
20260901101618 19 132 8.0 22.5 0.00 0.00 0.00 62 974.7
20260901101143 18 312 6.4 22.5 0.00 0.00 0.00 62 974.8
20260901100713 18 275 3.2 22.5 0.00 0.00 0.00 62 975.1
20260901100258 18 351 3.2 17.7 0.00 0.00 0.00 63 975.1
20260901095828 17 302 3.2 25.7 0.00 0.00 0.00 63 974.9
20260901095403 17 290 9.7 25.7 0.00 0.00 0.00 63 974.7
20260901094943 17 245 8.0 25.7 0.00 0.00 0.00 63 974.8
20260901094513 17 322 1.6 22.5 0.00 0.00 0.00 63 975.1
20260901094025 17 297 19.3 17.7 0.00 0.00 0.00 63 975.1
20260901093538 17 297 6.4 14.5 0.00 0.00 0.00 66 974.9
20260901093053 17 322 14.5 20.9 0.00 0.00 0.00 66 974.9
20260901092614 17 243 14.5 29.0 0.00 0.00 0.00 67 975.0
20260901092148 18 348 9.7 20.9 0.00 0.00 0.00 67 975.0
20260901091735 18 346 9.7 0.0 0.00 0.00 0.00 67 975.2
20260901091248 16 278 1.6 22.5 0.00 0.00 0.00 67 974.9
20260901090803 16 166 9.7 22.5 0.00 0.00 0.00 66 975.1
20260901090343 16 329 8.0 22.5 0.00 0.00 0.00 70 975.0
20260901085903 16 329 6.4 8.0 0.00 0.00 0.00 70 975.0
20260901085423 16 351 3.2 8.0 0.00 0.00 0.00 70 975.1
20260901084953 17 301 8.0 8.0 0.00 0.00 0.00 70 975.1
20260901084513 17 301 9.7 8.0 0.00 0.00 0.00 71 974.9
20260901084015 16 301 9.7 22.5 0.00 0.00 0.00 77 974.9
20260901083548 16 275 9.7 17.7 0.00 0.00 0.00 77 974.9
20260901083148 16 314 19.3 17.7 0.00 0.00 0.00 77 974.9
20260901082728 17 107 3.2 17.7 0.00 0.00 0.00 77 975.1
20260901082253 16 321 6.4 20.9 0.00 0.00 0.00 77 974.7
20260901081828 16 307 6.4 14.5 0.00 0.00 0.00 77 974.7
20260901081405 16 307 11.3 20.9 0.00 0.00 0.00 77 975.0
20260901080945 16 290 1.6 14.5 0.00 0.00 0.00 77 975.0
20260901080458 16 295 11.3 11.3 0.00 0.00 0.00 77 974.9
20260901080043 16 330 11.3 14.5 0.00 0.00 0.00 77 974.6
20260901075623 16 330 4.8 17.7 0.00 0.00 0.00 77 974.9
20260901075143 16 330 4.8 17.7 0.00 0.00 0.00 77 974.8
20260901074728 16 330 8.0 17.7 0.00 0.00 0.00 77 974.6
20260901074258 16 330 6.4 14.5 0.00 0.00 0.00 77 974.7
20260901073858 16 330 1.6 14.5 0.00 0.00 0.00 78 974.6
20260901073423 16 313 1.6 14.5 0.00 0.00 0.00 78 974.6
20260901073006 15 313 14.5 20.9 0.00 0.00 0.00 78 974.6
20260901072544 15 313 0.0 14.5 0.00 0.00 0.00 86 974.6
20260901072108 15 329 0.0 25.7 0.00 0.00 0.00 86 974.5
20260901071622 15 301 9.7 17.7 0.00 0.00 0.00 86 974.5
20260901071203 15 273 3.2 14.5 0.00 0.00 0.00 86 974.6
20260901070733 15 342 3.2 11.3 0.00 0.00 0.00 86 974.6
20260901070253 15 295 0.0 8.0 0.00 0.00 0.00 86 974.4
20260901065833 15 305 0.0 11.3 0.00 0.00 0.00 86 974.4
20260901065353 15 317 3.2 4.8 0.00 0.00 0.00 86 974.4
20260901064935 15 310 3.2 14.5 0.00 0.00 0.00 86 974.5
20260901064458 15 306 12.9 14.5 0.00 0.00 0.00 86 974.4
20260901064015 13 279 6.4 14.5 0.00 0.00 0.00 86 974.4
20260901063558 13 279 3.2 14.5 0.00 0.00 0.00 86 974.3
20260901063143 13 279 4.8 14.5 0.00 0.00 0.00 86 974.4
20260901062658 13 342 1.6 4.8 0.00 0.00 0.00 86 974.4
20260901062228 13 149 1.6 4.8 0.00 0.00 0.00 86 974.3
20260901061808 13 149 1.6 4.8 0.00 0.00 0.00 92 974.4
20260901061338 13 149 0.0 4.8 0.00 0.00 0.00 92 974.3
20260901060843 13 149 3.2 1.6 0.00 0.00 0.00 92 974.4
20260901060428 13 118 0.0 1.6 0.00 0.00 0.00 92 974.6
20260901055953 13 118 0.0 0.0 0.00 0.00 0.00 92 974.4
20260901055458 13 118 1.6 1.6 0.00 0.00 0.00 92 974.4
20260901055033 13 210 3.2 1.6 0.00 0.00 0.00 92 974.4
20260901054613 13 274 0.0 1.6 0.00 0.00 0.00 92 974.4
20260901054153 13 274 0.0 0.0 0.00 0.00 0.00 92 974.3
20260901053718 13 274 0.0 4.8 0.00 0.00 0.00 92 974.3
20260901053243 13 354 1.6 4.8 0.00 0.00 0.00 92 974.4
20260901052803 13 354 1.6 4.8 0.00 0.00 0.00 92 974.3
20260901052333 13 354 1.6 8.0 0.00 0.00 0.00 92 974.4
20260901051838 13 354 0.0 4.8 0.00 0.00 0.00 92 974.2
20260901051433 13 343 1.6 8.0 0.00 0.00 0.00 92 974.2
20260901051003 13 256 1.6 1.6 0.00 0.00 0.00 92 974.0
20260901050543 13 256 1.6 8.0 0.00 0.00 0.00 92 974.3
20260901050058 13 256 1.6 8.0 0.00 0.00 0.00 92 974.3
20260901045633 13 256 1.6 8.0 0.00 0.00 0.00 92 974.3
20260901045213 13 256 1.6 8.0 0.00 0.00 0.00 92 974.2
20260901044743 13 256 1.6 8.0 0.00 0.00 0.00 92 974.1
20260901044326 13 256 3.2 22.5 0.00 0.00 0.00 92 974.2
20260901043859 13 256 3.2 11.3 0.00 0.00 0.00 92 974.2
20260901043443 13 203 3.2 4.8 0.00 0.00 0.00 92 974.2
20260901043008 13 203 1.6 14.5 0.00 0.00 0.00 92 973.9
20260901042553 13 203 1.6 14.5 0.00 0.00 0.00 92 974.2
20260901042138 13 203 1.6 14.5 0.00 0.00 0.00 92 974.1
20260901041701 13 203 1.6 14.5 0.00 0.00 0.00 92 974.2
20260901041233 13 205 3.2 11.3 0.00 0.00 0.00 92 974.0
20260901040738 13 205 3.2 11.3 0.00 0.00 0.00 92 973.9
20260901040308 13 205 3.2 8.0 0.00 0.00 0.00 92 974.0
20260901035838 13 205 0.0 8.0 0.00 0.00 0.00 92 973.8
20260901035408 13 205 1.6 8.0 0.00 0.00 0.00 92 973.7
20260901034918 13 205 1.6 8.0 0.00 0.00 0.00 92 973.9
20260901034428 13 205 3.2 8.0 0.00 0.00 0.00 92 973.7
20260901033958 13 205 1.6 1.6 0.00 0.00 0.00 92 973.7
20260901033533 13 205 0.0 1.6 0.00 0.00 0.00 92 973.9
20260901033118 13 205 0.0 4.8 0.00 0.00 0.00 92 973.7
20260901032648 13 262 1.6 1.6 0.00 0.00 0.00 92 973.7
20260901032223 13 262 3.2 8.0 0.00 0.00 0.00 92 973.6
20260901031813 13 262 3.2 1.6 0.00 0.00 0.00 92 973.6
20260901031353 13 263 3.2 1.6 0.00 0.00 0.00 92 973.6
20260901030923 13 263 3.2 1.6 0.00 0.00 0.00 92 973.5
20260901030453 14 279 0.0 4.8 0.00 0.00 0.00 92 973.6
20260901030028 14 279 3.2 1.6 0.00 0.00 0.00 92 973.6
20260901025539 14 279 3.2 4.8 0.00 0.00 0.00 92 973.5
20260901025108 14 279 3.2 4.8 0.00 0.00 0.00 92 973.4
20260901024633 14 279 3.2 4.8 0.00 0.00 0.00 92 973.7
20260901024213 14 279 3.2 4.8 0.00 0.00 0.00 92 973.3
20260901023758 14 262 0.0 1.6 0.00 0.00 0.00 92 973.4
20260901023333 14 262 0.0 1.6 0.00 0.00 0.00 92 973.8
20260901022858 14 262 0.0 1.6 0.00 0.00 0.00 92 973.5
20260901022423 14 262 0.0 11.3 0.00 0.00 0.00 92 973.5
20260901021938 13 262 1.6 11.3 0.00 0.00 0.00 92 973.3
20260901021505 14 262 1.6 4.8 0.00 0.00 0.00 88 973.2
20260901021028 14 262 1.6 4.8 0.00 0.00 0.00 88 973.4
20260901020618 14 262 3.2 4.8 0.00 0.00 0.00 88 973.4
20260901020128 14 262 3.2 4.8 0.00 0.00 0.00 88 973.3
20260901015700 14 262 3.2 4.8 0.00 0.00 0.00 88 973.3
20260901015223 14 262 6.4 4.8 0.00 0.00 0.00 88 973.1
20260901014808 14 262 6.4 1.6 0.00 0.00 0.00 88 973.0
20260901014333 14 318 1.6 1.6 0.00 0.00 0.00 88 972.9
20260901013838 14 318 1.6 8.0 0.00 0.00 0.00 88 973.3
20260901013403 14 318 1.6 8.0 0.00 0.00 0.00 88 972.9
20260901012933 14 318 8.0 4.8 0.00 0.00 0.00 88 973.0
20260901012458 14 297 6.4 4.8 0.00 0.00 0.00 88 973.1
20260901012019 13 297 6.4 8.0 0.00 0.00 0.00 88 972.8
20260901011608 13 297 3.2 8.0 0.00 0.00 0.00 88 973.0
20260901011158 13 297 4.8 11.3 0.00 0.00 0.00 88 972.9
20260901010738 13 297 4.8 11.3 0.00 0.00 0.00 88 972.9
20260901010318 13 297 3.2 14.5 0.00 0.00 0.00 88 972.9
20260901005838 13 297 4.8 8.0 0.00 0.00 0.00 88 972.8
20260901005423 13 297 6.4 14.5 0.00 0.00 0.00 88 972.7
20260901005003 13 297 6.4 8.0 0.00 0.00 0.00 88 972.6
20260901004518 13 297 1.6 4.8 0.00 0.00 0.00 88 972.8
20260901004038 13 297 1.6 4.8 0.00 0.00 0.00 88 972.7
20260901003558 13 174 1.6 4.8 0.00 0.00 0.00 88 972.6
20260901003133 13 174 0.0 1.6 0.00 0.00 0.00 88 972.6
20260901002708 14 174 3.2 8.0 0.00 0.00 0.00 88 972.6
20260901002258 14 174 3.2 8.0 0.00 0.00 0.00 88 972.7
20260901001858 14 174 4.8 8.0 0.00 0.00 0.00 88 972.6
20260901001443 14 174 3.2 4.8 0.00 0.00 0.00 88 972.6
20260901001013 14 174 6.4 11.3 0.00 0.00 0.00 88 972.6
20260901000553 14 174 6.4 4.8 0.00 0.00 0.00 88 972.4
20260901000118 14 174 1.6 8.0 0.00 0.00 0.00 88 972.6
20260831235648 14 285 1.6 8.0 0.00 0.00 0.00 88 972.7
20260831235223 14 285 1.6 8.0 0.00 0.00 0.00 88 972.5
20260831234759 14 285 1.6 8.0 0.00 0.00 0.00 88 972.6
20260831234338 14 285 1.6 1.6 0.00 0.00 0.00 88 972.5
20260831233923 14 166 4.8 4.8 0.00 0.00 0.00 88 972.5
20260831233448 14 166 6.4 4.8 0.00 0.00 0.00 88 972.6
20260831232953 14 166 6.4 8.0 0.00 0.00 0.00 88 972.7
20260831232523 14 166 1.6 1.6 0.00 0.00 0.00 88 972.6
20260831232058 14 166 1.6 4.8 0.00 0.00 0.00 88 972.8
20260831231638 14 166 1.6 4.8 0.00 0.00 0.00 88 972.8
20260831231218 14 206 1.6 4.8 0.00 0.00 0.00 88 972.8
20260831230748 15 206 3.2 4.8 0.00 0.00 0.00 88 972.5
20260831230333 15 206 0.0 4.8 0.00 0.00 0.00 88 972.7
20260831225838 15 157 0.0 4.8 0.00 0.00 0.00 88 972.6
20260831225403 15 157 3.2 8.0 0.00 0.00 0.00 88 972.7
20260831224918 15 157 3.2 14.5 0.00 0.00 0.00 88 972.7
20260831224448 15 157 0.0 11.3 0.00 0.00 0.00 88 972.5
20260831224008 15 157 0.0 4.8 0.00 0.00 0.00 88 972.6
20260831223528 15 220 0.0 8.0 0.00 0.00 0.00 88 972.6
20260831223118 15 220 0.0 4.8 0.00 0.00 0.00 88 972.5
20260831222633 15 220 0.0 4.8 0.00 0.00 0.00 88 972.5
20260831222143 15 257 0.0 4.8 0.00 0.00 0.00 88 972.6
20260831221723 15 359 4.8 8.0 0.00 0.00 0.00 88 972.7
20260831221243 15 359 1.6 4.8 0.00 0.00 0.00 88 972.7
20260831220819 15 359 4.8 1.6 0.00 0.00 0.00 88 972.4
20260831220343 15 359 4.8 8.0 0.00 0.00 0.00 83 972.6
20260831215853 15 359 0.0 0.0 0.00 0.00 0.00 83 972.6
20260831215438 15 344 0.0 0.0 0.00 0.00 0.00 83 972.5
20260831214948 15 344 0.0 1.6 0.00 0.00 0.00 83 972.8
20260831214523 16 344 11.3 17.7 0.00 0.00 0.00 83 972.7
20260831214043 16 344 3.2 17.7 0.00 0.00 0.00 83 972.6
20260831213603 16 344 3.2 11.3 0.00 0.00 0.00 64 972.6
20260831213148 16 353 3.2 8.0 0.00 0.00 0.00 64 972.5
20260831212723 16 306 3.2 22.5 0.00 0.00 0.00 64 972.3
20260831212248 16 306 3.2 22.5 0.00 0.00 0.00 64 972.3
20260831211819 16 306 12.9 29.0 0.00 0.00 0.00 64 972.5
20260831211408 16 265 6.4 14.5 0.00 0.00 0.00 64 972.5
20260831210938 16 265 1.6 14.5 0.00 0.00 0.00 64 972.3
20260831210458 16 265 1.6 4.8 0.00 0.00 0.00 64 972.2
20260831210039 16 265 1.6 1.6 0.00 0.00 0.00 64 972.0
20260831205553 16 265 1.6 4.8 0.00 0.00 0.00 64 971.9
20260831205133 16 265 1.6 4.8 0.00 0.00 0.00 64 972.1
20260831204639 16 178 1.6 8.0 0.00 0.00 0.00 64 971.8
20260831204203 16 306 1.6 8.0 0.00 0.00 0.00 64 971.7